RH
88 85 74 66 86 72 73 67 48 47 52 50 44 61 67 78 60 61 96 88 71 71 75 78 66 68 78 60 43 79 86 62 44 69 82 83 84 87 81 74 61 34 17 18 23 30 32 33 38
80 80 75 74 89 88 66 50 42 54 60 48 43 66 71 87 98 98 98 87 75 71 75 78 72 72 76 52 46 81 84 34 21 53 88 89 88 84 80 62 38 17 18 20 27 30 29 31 33
84 80 81 82 80 79 63 47 42 52 51 57 51 60 71 99 97 92 96 90 75 73 79 80 74 77 71 43 56 85 69 23 15 30 78 92 92 85 72 54 19 18 19 22 27 27 27 28 30
82 81 76 90 80 67 52 43 44 68 63 60 76 60 65 88 98 98 91 83 78 77 84 79 80 80 67 44 83 84 41 21 12 14 47 69 77 60 46 21 18 20 22 23 26 28 29 28 30
87 89 91 96 73 68 48 33 40 58 70 66 60 62 59 63 87 95 100 84 80 81 80 83 82 75 65 48 86 82 33 19 14 17 17 30 40 23 19 19 21 22 24 25 26 29 31 31 33
88 80 99 96 81 62 47 34 35 55 58 60 79 79 63 65 100 99 100 82 80 81 82 83 83 74 66 50 82 63 39 24 16 19 20 19 18 18 19 20 23 24 25 27 28 29 30 31 34
95 95 83 87 82 72 50 40 55 61 66 60 46 67 63 62 85 100 99 86 77 82 84 85 83 71 51 49 78 76 58 35 21 18 20 21 20 21 21 22 26 27 27 28 29 30 31 32 33
93 86 82 79 80 78 47 39 38 52 58 51 52 72 66 70 76 100 100 90 76 84 85 88 82 72 48 44 75 88 75 61 38 25 20 20 22 24 24 24 26 28 29 30 31 32 31 32 34
85 94 81 78 77 65 41 44 44 46 50 46 51 40 48 54 76 92 100 87 82 89 90 88 85 77 53 41 57 88 93 83 63 41 29 26 24 24 26 27 28 28 29 30 31 32 33 34 34
91 87 72 56 62 63 42 45 46 65 58 66 60 54 54 70 68 85 88 97 90 95 94 87 87 80 66 42 44 69 90 93 85 50 35 29 28 28 29 29 30 31 30 31 32 33 35 36 37
82 86 59 67 57 54 46 58 46 69 68 62 57 63 58 57 53 72 67 100 98 95 95 88 83 80 67 46 35 49 70 96 87 58 44 38 35 29 29 31 31 31 32 33 34 36 40 43 44
91 69 65 56 55 68 66 54 58 61 49 53 56 52 50 46 55 66 70 65 98 98 95 96 88 82 74 54 37 44 53 76 90 74 52 40 38 39 38 35 33 32 36 37 39 43 46 55 66
93 75 67 65 60 66 72 74 74 57 42 47 62 58 49 50 50 54 65 65 87 94 92 98 94 93 86 73 55 36 55 59 67 79 75 52 40 51 47 44 39 35 32 35 42 49 52 62 72
80 74 65 68 62 72 81 78 76 63 60 62 70 64 58 49 57 68 72 71 54 63 65 58 68 75 93 84 81 62 50 44 58 76 71 42 35 50 56 49 40 47 41 47 51 54 60 69 74
62 85 84 72 70 73 87 80 84 67 64 55 59 64 62 70 80 72 58 66 66 58 61 60 55 46 60 82 75 78 82 74 69 50 48 54 56 70 72 68 50 54 55 54 59 62 68 74 78
90 81 95 70 82 98 80 84 78 72 79 74 55 62 57 62 65 63 64 55 73 71 72 52 49 58 52 64 74 86 78 71 74 80 79 79 79 85 84 75 70 59 62 63 65 70 76 82 86
88 95 100 91 83 90 85 92 80 69 69 65 67 72 61 61 66 68 66 66 66 59 53 54 56 55 51 78 77 75 78 81 78 70 73 83 85 89 90 86 76 64 68 82 84 90 92 91 88
95 98 95 98 89 86 92 87 72 75 67 65 60 58 74 63 58 51 54 59 55 56 53 56 68 56 68 80 78 74 68 78 77 76 90 87 81 85 89 92 90 83 80 87 92 91 86 89 87
73 79 100 95 87 86 91 85 78 77 77 61 60 55 56 58 70 63 58 61 63 62 69 66 69 59 69 60 67 69 76 70 66 76 90 84 82 86 87 89 95 92 91 92 88 91 91 88 88
74 83 93 87 87 82 84 89 82 83 88 80 66 53 49 49 47 50 51 56 62 64 69 75 85 81 79 71 68 63 54 58 60 71 87 84 82 85 85 93 90 88 92 89 88 87 85 82 90
84 89 96 99 88 85 87 93 92 79 81 71 64 54 48 44 41 43 44 45 45 53 67 69 71 78 82 87 82 77 75 77 77 84 85 85 80 87 86 88 89 84 83 84 86 83 86 85 93
89 74 78 94 83 97 78 98 89 90 80 75 72 56 48 44 40 37 37 38 42 42 42 58 68 73 75 80 86 100 92 87 94 93 90 79 81 80 76 82 81 84 85 86 83 81 95 90 94
92 69 74 78 87 89 94 97 74 77 88 72 68 55 48 45 44 43 42 42 40 40 38 38 44 58 61 63 65 66 73 80 70 64 74 88 88 87 85 78 78 82 87 78 73 70 60 61 77
75 84 86 92 92 95 90 82 61 60 58 61 59 51 47 47 46 44 42 41 39 38 36 38 40 43 55 57 61 62 63 68 69 75 74 67 80 73 77 84 81 85 74 70 77 66 66 50 32
78 86 98 98 98 97 80 83 78 47 47 48 52 50 47 45 43 41 39 40 39 37 37 41 42 44 48 58 57 58 61 64 62 69 68 74 79 72 78 90 92 88 82 73 75 72 34 35 33
75 67 86 90 96 97 90 83 56 44 49 48 48 48 42 38 40 48 45 42 41 41 43 47 48 46 44 43 48 60 60 64 62 64 64 69 74 80 88 98 95 83 74 80 45 35 33 35 38
75 79 58 74 68 93 78 48 38 50 55 54 55 49 52 49 44 41 45 53 52 50 48 49 48 46 44 43 41 40 39 39 40 44 57 66 73 81 84 81 71 75 79 39 38 37 42 44 45
60 52 67 81 76 79 69 56 57 52 60 59 62 59 54 51 49 47 45 43 42 44 48 52 52 51 52 52 51 49 48 47 44 43 50 68 73 77 78 81 78 65 43 40 44 44 47 49 50
62 66 66 70 78 76 74 53 46 45 52 59 65 61 58 53 52 49 46 44 42 41 40 39 37 38 40 46 53 54 53 50 48 53 72 90 92 87 72 48 46 46 47 46 46 51 50 52 54
77 65 58 79 69 78 69 61 64 52 55 62 67 65 64 61 56 52 48 45 42 41 40 38 41 41 41 40 41 47 54 59 56 57 66 74 75 62 57 56 57 52 48 53 52 50 53 52 55
Wind_Speed
11 7 8 5 2 2 4 7 3 3 6 2 10 1 3 5 2 3 2 24 32 31 28 24 21 19 16 14 17 19 17 14 15 18 20 22 23 21 19 17 14 14 17 18 19 19 19 19 18
14 11 10 4 3 7 13 7 6 6 11 9 5 6 1 2 5 0 15 21 32 30 27 24 22 19 17 15 19 19 17 12 15 20 21 22 20 19 18 14 13 17 18 19 19 19 18 18 18
16 16 9 4 5 11 12 13 16 4 24 4 7 6 4 3 4 10 8 25 31 29 26 24 21 19 17 16 19 19 14 12 15 21 23 22 18 19 16 12 17 19 19 19 18 17 17 16 16
11 12 8 6 14 14 8 7 4 6 7 21 7 6 7 7 4 7 15 26 29 27 23 22 21 19 17 19 19 18 14 14 16 20 22 21 18 14 14 19 20 19 18 17 16 15 14 14 13
13 5 6 3 19 8 6 16 20 8 12 20 29 7 12 12 5 11 16 26 28 25 23 21 20 18 17 21 18 16 14 16 18 19 21 21 18 19 21 22 21 19 18 17 15 14 12 11 10
6 5 4 13 19 22 4 18 18 15 14 21 20 22 6 14 8 12 18 27 26 24 23 21 19 17 17 21 19 14 15 17 18 20 21 22 22 23 22 21 20 19 17 15 13 12 10 9 8
5 3 13 11 14 16 7 24 6 13 16 21 32 20 13 15 12 17 15 28 26 23 22 21 19 17 17 21 21 16 15 16 18 19 20 21 21 21 21 20 19 17 15 13 11 9 8 7 5
6 3 10 10 9 10 15 9 13 16 16 22 32 14 11 16 22 14 20 25 24 23 22 22 18 16 17 20 23 19 16 14 15 17 18 19 19 19 18 18 17 15 13 11 9 8 6 5 4
12 6 14 16 9 11 16 10 12 15 12 24 36 37 27 15 16 6 17 21 23 22 22 20 18 16 16 18 22 21 18 14 13 15 16 17 17 17 15 14 13 12 11 9 8 7 6 4 3
9 10 21 13 8 9 14 7 14 8 19 9 31 22 24 16 18 12 13 22 24 24 23 20 17 16 16 17 20 23 21 18 16 15 15 15 15 14 13 12 11 10 9 9 8 7 6 4 3
10 17 14 8 18 12 16 10 10 11 16 21 40 30 30 29 20 11 13 12 24 24 23 21 17 16 15 15 18 21 23 20 17 15 14 13 13 14 13 12 10 9 9 8 7 6 5 4 3
11 21 18 14 21 6 4 17 12 15 9 25 38 34 33 32 28 22 13 12 16 27 25 21 17 16 15 13 14 18 21 22 18 17 15 12 11 12 11 11 10 10 10 9 8 7 6 5 3
14 11 30 19 21 12 6 11 18 11 12 22 32 36 37 32 30 28 16 7 15 19 13 15 14 15 15 14 13 15 18 19 19 18 16 13 11 10 10 10 10 11 11 10 9 8 7 6 5
10 21 26 17 21 12 7 3 7 9 16 24 34 42 41 32 39 36 33 28 13 13 9 7 12 3 17 18 17 14 14 15 17 18 17 15 13 11 11 10 11 10 10 10 10 9 8 6 5
26 18 5 11 18 8 11 5 8 5 20 22 26 32 37 38 30 39 34 32 35 21 21 19 22 27 14 20 20 18 18 17 16 16 15 13 12 11 10 10 11 11 10 11 10 8 7 6 5
20 7 5 7 12 3 10 13 4 3 14 15 27 31 30 27 39 32 29 28 28 28 27 26 22 28 16 24 21 17 18 18 17 16 15 14 13 10 10 10 10 11 11 11 9 8 7 5 6
7 6 4 4 7 6 3 6 2 5 9 8 7 17 28 27 23 15 22 29 35 33 28 26 18 25 18 25 23 18 19 19 19 20 16 14 13 12 10 10 9 12 12 10 8 7 5 6 6
11 8 3 4 11 3 3 1 2 11 2 5 3 6 13 31 30 31 30 34 31 32 30 24 23 22 20 22 23 27 40 25 24 24 18 16 17 15 13 10 11 12 13 11 9 7 8 10 11
13 7 8 5 10 7 5 2 7 7 5 2 2 1 5 13 20 24 26 23 22 32 32 30 27 26 23 29 32 31 23 27 33 29 25 20 21 19 18 12 11 15 14 11 9 11 11 13 15
12 10 4 4 1 4 8 2 10 10 5 2 5 5 7 8 10 10 8 11 27 29 27 26 29 31 34 33 36 26 22 32 29 29 29 24 22 20 21 16 13 13 13 13 12 13 13 14 15
6 10 8 1 6 9 2 3 4 9 8 7 7 7 8 11 8 9 9 10 10 10 16 25 31 31 31 34 36 35 36 30 31 30 29 25 23 23 23 21 21 19 17 16 15 14 16 18 19
3 9 14 13 3 2 2 2 4 6 9 3 9 8 9 7 9 9 12 14 13 10 8 13 21 28 25 23 26 23 24 25 20 18 22 25 25 23 22 22 25 22 20 15 13 15 17 19 22
3 12 12 8 5 4 3 2 3 6 6 7 5 14 10 6 6 5 3 6 12 15 16 18 17 16 16 18 21 17 19 25 20 20 22 19 22 23 23 23 23 22 14 11 12 17 18 20 21
6 12 9 5 2 1 4 4 3 1 1 2 6 11 12 11 10 9 7 6 7 10 12 19 22 18 17 17 19 18 20 21 21 20 22 19 25 24 22 23 23 17 14 15 17 21 20 22 22
12 4 2 2 1 2 5 2 4 5 6 2 3 11 8 6 5 8 9 8 7 9 12 14 20 21 19 19 19 20 21 20 21 23 22 23 24 26 23 28 22 15 19 18 19 19 19 22 21
3 2 3 4 2 3 4 3 4 5 8 10 18 23 24 22 20 17 5 2 5 7 7 6 8 13 16 16 17 19 21 21 21 22 23 24 22 21 23 19 8 12 14 19 18 19 18 19 20
4 4 1 6 2 4 2 3 3 6 7 12 18 31 27 27 23 20 18 12 6 3 4 4 5 8 11 13 14 15 16 18 19 21 23 23 23 19 15 12 13 19 19 20 20 18 18 19 23
1 1 3 3 3 4 3 2 1 5 5 5 10 19 20 21 22 21 20 18 15 11 7 4 4 6 9 11 12 13 14 14 15 16 17 20 19 16 16 18 19 19 20 20 20 18 20 24 23
4 3 4 4 3 3 3 1 3 1 2 5 9 17 20 21 21 19 17 16 14 12 9 8 6 6 8 12 14 15 16 16 15 14 12 13 15 17 19 18 20 20 19 19 18 22 24 23 23
1 2 2 4 2 2 2 3 6 3 4 10 13 16 17 17 16 14 14 13 12 12 11 9 8 9 11 12 13 14 15 14 14 12 11 11 14 15 15 17 19 18 17 19 21 22 22 22 21
Wind_Direction
243 231 237 210 151 135 232 237 210 194 126 353 355 329 105 58 199 210 224 170 170 167 168 166 167 166 163 160 154 150 154 146 146 140 132 134 136 143 141 136 129 127 125 120 115 112 110 104 104
240 227 232 184 153 187 231 227 234 186 163 225 1 312 77 75 5 37 149 162 170 167 166 166 167 166 164 161 158 156 154 149 153 152 139 136 141 141 141 133 130 132 127 123 120 115 110 106 100
233 229 229 189 204 209 227 211 232 328 197 117 14 327 28 12 30 143 182 161 170 169 166 168 169 167 162 161 159 158 157 152 156 160 157 146 144 150 148 138 138 134 129 128 124 117 109 102 97
238 232 242 228 210 230 217 193 178 125 165 163 267 311 345 8 174 158 164 166 171 167 165 169 170 167 165 161 161 162 156 151 153 161 164 166 166 156 151 143 140 137 133 131 127 119 109 99 94
234 233 228 226 215 229 230 238 180 177 165 186 200 265 323 333 251 197 178 172 171 165 168 170 171 170 170 164 163 168 159 150 148 152 163 171 171 151 144 143 142 141 139 137 133 126 117 108 98
228 206 216 225 214 227 256 232 211 178 174 173 167 254 282 286 164 192 180 172 168 170 172 173 172 175 178 169 164 169 161 150 147 147 148 147 147 146 145 145 145 145 144 141 137 131 123 116 107
228 202 227 240 198 241 236 241 196 178 157 173 181 215 254 256 247 177 178 171 170 176 174 176 175 181 177 171 165 166 166 154 149 148 148 148 149 149 149 149 149 149 147 144 141 137 132 127 113
223 256 221 218 207 245 232 249 237 185 191 192 174 189 228 220 223 149 167 173 175 178 177 179 179 185 179 173 173 168 178 166 154 153 153 153 154 156 156 155 154 154 152 150 149 147 143 135 121
230 235 225 213 198 212 197 202 224 205 178 178 185 206 217 206 194 331 152 176 182 182 180 184 183 187 182 178 177 174 179 184 167 163 161 159 159 159 161 161 162 162 162 162 161 161 161 153 135
207 220 229 207 216 217 233 214 192 168 176 195 178 194 190 202 228 274 280 188 187 187 184 186 190 192 188 184 184 183 181 190 184 173 167 168 167 167 169 171 172 173 174 175 175 175 173 174 175
207 230 219 198 201 234 235 299 229 176 191 190 180 181 182 184 204 229 303 180 197 193 190 191 196 198 197 191 189 190 191 191 194 184 180 180 181 182 182 184 187 190 191 191 187 186 190 194 204
238 230 241 229 216 248 197 217 271 197 190 198 181 180 183 187 191 214 189 306 224 198 194 195 197 199 200 200 198 197 198 200 202 196 195 192 193 194 197 198 202 204 205 203 202 201 198 197 191
235 240 217 234 200 205 258 216 266 216 196 186 187 184 187 193 184 194 181 216 179 193 205 200 199 203 206 205 205 203 205 207 213 212 213 213 210 211 208 216 219 214 212 213 210 206 205 205 214
229 232 213 218 217 204 230 191 281 209 176 179 199 189 189 192 189 180 176 167 170 234 220 224 246 274 229 214 205 212 211 213 216 219 224 232 225 222 222 232 223 219 212 212 210 208 210 218 226
202 215 244 225 222 195 175 233 236 242 182 182 190 194 196 189 192 191 187 184 194 185 214 221 225 240 269 239 229 215 211 209 216 223 224 225 222 229 235 238 229 224 218 212 216 220 222 231 251
203 179 204 220 206 88 163 217 254 278 169 180 186 188 190 201 208 204 194 195 202 205 207 208 223 216 271 243 234 247 253 243 228 218 232 234 225 232 236 235 237 225 223 225 226 233 240 258 284
160 166 142 336 186 235 80 165 274 23 145 130 113 172 184 191 204 214 225 203 201 199 197 201 197 194 212 225 226 242 256 250 250 247 234 240 238 240 247 244 237 226 225 226 230 238 253 279 297
153 115 141 186 180 312 49 264 32 23 99 133 129 106 149 186 192 202 207 208 207 208 209 217 204 224 225 229 219 243 246 250 252 253 235 238 245 246 253 254 242 237 226 223 230 251 264 267 277
128 131 91 6 150 178 166 310 341 330 351 103 209 167 155 143 174 196 205 203 205 221 225 223 219 225 210 198 214 228 214 234 234 240 238 238 243 246 239 245 248 242 236 226 227 248 262 270 282
116 121 174 81 14 70 63 343 307 295 258 339 335 281 229 188 170 163 193 199 215 229 230 233 231 237 229 219 224 216 216 235 229 250 237 247 246 241 236 232 243 246 236 230 233 246 264 276 281
123 123 122 115 43 63 111 81 224 277 241 273 314 290 275 248 230 209 211 221 222 217 228 230 236 236 235 241 237 235 239 245 240 241 239 238 245 236 238 236 227 231 229 232 239 255 266 278 280
91 139 129 155 129 58 65 358 233 247 255 242 283 296 260 260 236 245 247 247 246 230 229 233 236 241 244 243 249 259 259 260 267 262 262 256 242 239 241 239 233 230 234 241 256 269 273 282 282
223 150 152 161 119 141 70 84 268 128 266 244 271 245 237 231 245 240 259 290 256 257 260 255 252 244 243 243 255 250 255 255 256 258 258 255 252 243 247 248 241 229 225 247 268 270 274 286 287
109 85 68 48 42 90 162 190 338 43 344 322 283 217 211 222 233 252 275 298 273 262 263 247 245 249 252 252 253 260 263 263 259 257 255 250 246 250 256 243 238 232 234 263 264 276 281 277 283
104 70 95 133 70 73 325 71 269 336 0 322 102 103 120 150 232 250 252 255 281 271 278 270 244 247 257 257 262 265 265 269 266 266 266 257 248 242 250 255 245 246 271 262 267 267 271 281 282
91 157 158 139 119 112 1 46 339 352 31 77 86 88 83 78 76 74 87 241 268 297 328 299 251 250 265 270 270 266 270 273 274 270 266 263 263 265 250 256 281 255 257 257 245 255 264 274 284
316 46 257 108 97 81 324 40 64 45 40 45 66 76 71 72 72 70 69 74 77 42 7 357 305 282 284 284 276 272 273 276 281 279 272 266 260 252 243 243 242 251 239 240 250 258 268 281 285
178 203 47 8 102 74 356 141 91 38 29 40 50 66 69 71 70 68 66 61 57 54 44 11 325 306 296 292 289 287 284 285 286 285 279 260 243 234 237 240 237 234 239 251 263 272 285 285 286
357 13 37 107 77 140 135 112 43 180 191 87 67 72 73 69 61 57 55 50 44 37 25 14 349 316 291 285 283 282 282 283 285 283 275 250 221 210 207 222 228 236 256 260 274 284 281 283 284
23 37 68 101 292 49 82 345 358 182 113 109 85 75 72 66 60 49 40 31 22 15 4 347 325 311 306 299 294 287 276 273 272 268 258 241 224 215 236 241 249 252 255 272 280 280 282 284 285